This demonstration page uses our WeatherBlox Daily Observations layout. Learn more.

Left ArrowRight Arrow

36.17497, -115.13722

Hourly Observations for May 7, 2016

Temp ( °F °C ) Dew Point ( °F °C ) Humidity (%) Winds ( mph kmh ) Pressure ( in mb ) Visibility ( mi km ) Precip ( " mm )
12:53 am 00:53 Clear 58 14.4 48 8.9 70 70 NNW 3 6 29.85 1011 10 16.0934 0 0
1:53 am 01:53 Partly Cloudy 57 13.9 47 8.3 69 69 Calm 29.83 1010 10 16.0934 0 0
2:53 am 02:53 Mostly Clear 57 13.9 47 8.3 69 69 Calm 29.84 1010 10 16.0934 0 0
3:53 am 03:53 Cloudy 55 12.8 46 7.8 72 72 E 5 7 29.85 1011 10 16.0934 0 0
4:53 am 04:53 Cloudy 57 13.9 45 7.2 64 64 Calm 29.86 1011 10 16.0934 0 0
5:53 am 05:53 Mostly Cloudy 55 12.8 46 7.8 72 72 SE 5 7 29.88 1012 10 16.0934 0 0
6:53 am 06:53 Mostly Cloudy 55 12.8 45 7.2 69 69 ESE 7 11 29.9 1013 10 16.0934 0 0
7:53 am 07:53 Cloudy 58 14.4 45 7.2 62 62 E 5 7 29.92 1013 10 16.0934 0 0
8:53 am 08:53 Cloudy 59 15 43 6.1 56 56 Calm 29.94 1014 10 16.0934 0 0
9:53 am 09:53 Sunny 63 17.2 43 6.1 48 48 VRB 5 7 29.93 1014 10 16.0934 0 0
10:53 am 10:53 Mostly Sunny 65 18.3 42 5.6 43 43 Calm 29.93 1014 10 16.0934 0 0
11:53 am 11:53 Partly Cloudy 65 18.3 42 5.6 43 43 ESE 6 9 29.92 1013 10 16.0934 0 0
12:53 pm 12:53 Mostly Sunny 67 19.4 41 5 39 39 WSW 3 6 29.9 1013 10 16.0934 0 0
1:53 pm 13:53 Mostly Sunny 69 20.6 37 2.8 31 31 VRB 7 11 29.88 1012 10 16.0934 0 0
2:53 pm 14:53 Mostly Cloudy 68 20 41 5 38 38 SE 18 30 29.88 1012 10 16.0934 0 0
3:53 pm 15:53 Cloudy with Light Rain 62 16.7 49 9.4 62 62 WNW 14 22 29.9 1013 10 16.0934 0 0.0254
4:06 pm 16:06 Cloudy with Rain 59 15 46 8 63 63 SW 30 48 29.85 1011 2.5 4.02335 0 0
4:09 pm 16:09 Cloudy with Heavy Rain 58 14.4 46 7.8 65 65 SW 17 28 29.88 1012 1.25 2.011675 0.1 2.54
4:22 pm 16:22 Cloudy with Rain 59 15 45 7 59 59 undefined N/A 29.88 1012 2 3.21868 0 0
4:30 pm 16:30 Cloudy with Light Rain 59 15 46 8 63 63 ENE 14 22 29.85 1011 5 8.0467 0 0
4:53 pm 16:53 Cloudy with Light Rain 59 15 46 7.8 62 62 WNW 6 9 29.93 1013 10 16.0934 0.2 5.08
5:53 pm 17:53 Partly Cloudy 60 15.6 51 10.6 72 72 NE 8 13 29.91 1013 10 16.0934 0.01 0.254
6:53 pm 18:53 Sunny 61 16.1 47 8.3 60 60 E 5 7 29.91 1013 10 16.0934 0 0
7:53 pm 19:53 Partly Cloudy 61 16.1 46 7.8 58 58 ESE 5 7 29.91 1013 10 16.0934 0 0
8:53 pm 20:53 Cloudy 60 15.6 49 9.4 67 67 NE 3 6 29.92 1013 10 16.0934 0 0
9:53 pm 21:53 Cloudy 60 15.6 48 8.9 65 65 N 5 7 29.93 1014 10 16.0934 0 0
10:53 pm 22:53 Cloudy 59 15 47 8.3 64 64 NNW 3 6 29.92 1013 10 16.0934 0 0
11:53 pm 23:53 Mostly Cloudy 60 15.6 47 8.3 62 62 Calm 29.91 1013 10 16.0934 0 0

Powered by AerisWeather